STARLINK-3669, 51971

Orbit data source: Space-Track

STARLINK-3669, 51971 is a payload satellite owned by SpaceX/Seattle (US) in LEO that was launched on Wed, 09 Mar 2022 UTC via an FALCON 9 launch vehicle from the Air Force Eastern Test Range (AFETR). Payload-class satellites include a variety of spacecraft equipped with specific instruments for various scientific and technological missions. These include communications satellites like Starlink; space stations such as the ISS; scientific satellites like the Hubble; Earth observation satellites from companies like Planet Labs, Umbra, and HawkEye 360; GPS; miniature CubeSats for education and research; and military/defense satellites.

Loading next visibility...
Identifier
51971, 2022-025R
Orbit
LEO
Country
Flag of USUS
Related business
Manufacturer
SpaceX/Seattle
Mission
Operational Commercial Communications
Bus & Motor
STARLINK, Unknown motor
Mass
297 kg wet, ~275 kg dry
Launch date (UTC)
2022-03-09 (4 years ago)
Launch vehicle
FALCON 9
Launch site
Air Force Eastern Test Range (AFETR)
Object type
Payload
Rocket body
Debris
Shape & HBR
Box + 1 Pan, 10.1 m
Radar Cross Section
13.562 m², Large (>1 m²)

Expand to show TLE details & history
Last TLE update: 18 hours ago

TLE from 18 hours ago
0 STARLINK-3669
1 51971U 22025R   25346.61729960 -.00000926  00000-0 -43296-4 0  9991
2 51971  53.0572  57.7616 0001609  95.0750 265.0423 15.06384672207857
Epoch: 2025-12-12T14:48Z
TLE epoch observation values (Epoch: 2025-12-12T14:48:54.685Z)
Latitude
0.00001°
Longitude
113.9774°
Altitude
548.234 km
Speed
7.589 km/s
True Right ascension
03h 51m 02s
True Declination
0° 00' 00"
Sunlit
Object was in full shadow at epoch
Visualization orbit readout
Latitude
Unknown
Longitude
Unknown
Altitude
Unknown
Speed
Unknown
Apparent Right ascension
Unknown
Apparent Declination
Unknown
Sunlit
N/A
Visualization observer readout
Local Sidereal Time
07:26:30
Azimuth
Unknown
Elevation
Unknown
Doppler factor
Unknown
Orbital elements
Apogee altitude
548.643 km
Perigee altitude
546.414 km
Semi-major axis
6,925.666 km
Eccentricity
0.00016
Inclination
53.0572°
RAAN
57.7616°
Arg. of periapsis
95.075°
True anomaly
265.02393°
Mean anomaly
265.0423°
Eccentric anomaly
265.03312°
Mean motion
3.76574 °/min
Orbital period
95.6 mins
BSTAR
-0.000043296
Loading maneuver chart data...
Computing Atmospheric mass density...
Loading historical data...
Loading historical data...
Loading historical data...
Loading historical data...
Loading historical data...
Loading historical data...
Loading historical data...

Documentation

Showing up to 5 results
|